Navstar 2

operational
NORAD ID: 10893 Int'l Des: 1978-047 Owner: SAMSO Country: US Constellation: GPS
MEO

About Navstar 2

Description loading...

Live Position

Loading 3D Globe...

Upcoming Passes

Altitude History

Altitude vs Time

uPlot chart will show altitude changes over time

Two-Line Element Set

1 10893U 78047A 25260.63056051 .00000031 00000-0 00000-0 0 9992
2 10893 62.8480 281.2231 0536097 42.4429 129.8066 2.01626915348239
Epoch: Sep 17, 2025 • Age: 30 hours

Current Status

Altitude 19043.8 km
Velocity 4.04 km/s
Sub-Earth Point -2.04°S, 36.08°W
Launch Date May 13, 1978
Age 47.3 years
Type navigation

Technical Details

Classification Payload
Mass 409.00 kg
Dry Mass 409.00 kg
Total Mass 775.00 kg
Length 2.40 m
Diameter 2.60 m
Span 5.30 m
Shape Box + 2 Pan
Manufacturer RWISB
Bus Type GPS
Phase Status In Orbit
Owner/State SAMSO/US

Large Constellations

Loading constellations...